| time (UTC) | temp F | wind direction | speed MPH | gust MPH | rain 1hr in | rain 24hr in | rain mn in | humidity % | barometer mb |
| 20260504050116 | 72 | 223 | 19.0 | 30.0 | 0.00 | 0.00 | 0.00 | 27 | 1002.6 |
| 20260504044600 | 74 | 226 | 11.0 | 25.0 | 0.00 | 0.00 | 0.00 | 19 | 1002.1 |
| 20260504043110 | 74 | 236 | 8.0 | 14.0 | 0.00 | 0.00 | 0.00 | 18 | 1001.8 |
| 20260504041558 | 74 | 342 | 8.0 | 20.0 | 0.00 | 0.00 | 0.00 | 17 | 1001.4 |
| 20260504040100 | 72 | 245 | 6.0 | 29.0 | 0.00 | 0.00 | 0.00 | 19 | 1001.8 |
| 20260504034600 | 70 | 261 | 0.0 | 2.0 | 0.00 | 0.00 | 0.00 | 22 | 1001.3 |
| 20260504033059 | 71 | 261 | 0.0 | 0.0 | 0.00 | 0.00 | 0.00 | 19 | 1001.2 |
| 20260504031604 | 72 | 262 | 0.0 | 3.0 | 0.00 | 0.00 | 0.00 | 20 | 1001.1 |
| 20260504030055 | 71 | 261 | 0.0 | 2.0 | 0.00 | 0.00 | 0.00 | 20 | 1001.1 |
| 20260504024556 | 73 | 257 | 2.0 | 5.0 | 0.00 | 0.00 | 0.00 | 28 | 1000.9 |
| 20260504023054 | 74 | 190 | 0.0 | 0.0 | 0.00 | 0.00 | 0.00 | 18 | 1000.8 |
| 20260504021554 | 75 | 190 | 0.0 | 0.0 | 0.00 | 0.00 | 0.00 | 16 | 1000.8 |
| 20260504020052 | 76 | 190 | 0.0 | 0.0 | 0.00 | 0.00 | 0.00 | 15 | 1000.9 |
| 20260504014558 | 77 | 190 | 0.0 | 0.0 | 0.00 | 0.00 | 0.00 | 15 | 1000.9 |
| 20260504013058 | 78 | 190 | 0.0 | 0.0 | 0.00 | 0.00 | 0.00 | 15 | 1001.1 |
| 20260504011551 | 78 | 190 | 0.0 | 3.0 | 0.00 | 0.00 | 0.00 | 14 | 1001.1 |
| 20260504010104 | 78 | 190 | 1.0 | 8.0 | 0.00 | 0.00 | 0.00 | 14 | 1001.2 |
| 20260504004548 | 79 | 173 | 3.0 | 8.0 | 0.00 | 0.00 | 0.00 | 14 | 1001.3 |
| 20260504003045 | 79 | 205 | 1.0 | 9.0 | 0.00 | 0.00 | 0.00 | 13 | 1001.7 |
| 20260504001556 | 80 | 196 | 2.0 | 8.0 | 0.00 | 0.00 | 0.00 | 14 | 1001.7 |
| 20260504000047 | 80 | 144 | 1.0 | 7.0 | 0.00 | 0.00 | 0.00 | 11 | 1001.8 |
| 20260503234543 | 80 | 123 | 0.0 | 4.0 | 0.00 | 0.00 | 0.00 | 12 | 1001.8 |
| 20260503233045 | 80 | 144 | 5.0 | 9.0 | 0.00 | 0.00 | 0.00 | 11 | 1002.0 |
| 20260503231543 | 81 | 146 | 6.0 | 15.0 | 0.00 | 0.00 | 0.00 | 11 | 1002.1 |
| 20260503230037 | 82 | 142 | 2.0 | 12.0 | 0.00 | 0.00 | 0.00 | 11 | 1002.4 |
| 20260503224540 | 84 | 184 | 7.0 | 11.0 | 0.00 | 0.00 | 0.00 | 11 | 1002.4 |
| 20260503223034 | 84 | 197 | 4.0 | 8.0 | 0.00 | 0.00 | 0.00 | 11 | 1002.6 |
| 20260503221535 | 83 | 138 | 4.0 | 11.0 | 0.00 | 0.00 | 0.00 | 9 | 1003.0 |
| 20260503220029 | 83 | 219 | 3.0 | 11.0 | 0.00 | 0.00 | 0.00 | 11 | 1003.4 |
| 20260503214532 | 80 | 150 | 4.0 | 13.0 | 0.00 | 0.00 | 0.00 | 11 | 1003.9 |
| 20260503213030 | 83 | 153 | 5.0 | 10.0 | 0.00 | 0.00 | 0.00 | 11 | 1004.3 |
| 20260503211523 | 84 | 287 | 1.0 | 15.0 | 0.00 | 0.00 | 0.00 | 9 | 1004.5 |
| 20260503210038 | 84 | 223 | 5.0 | 10.0 | 0.00 | 0.00 | 0.00 | 10 | 1005.1 |
| 20260503204517 | 82 | 5 | 4.0 | 8.0 | 0.00 | 0.00 | 0.00 | 11 | 1005.3 |
| 20260503203015 | 82 | 186 | 5.0 | 9.0 | 0.00 | 0.00 | 0.00 | 11 | 1005.7 |
| 20260503201511 | 83 | 207 | 4.0 | 11.0 | 0.00 | 0.00 | 0.00 | 12 | 1006.0 |
| 20260503200007 | 82 | 198 | 4.0 | 7.0 | 0.00 | 0.00 | 0.00 | 12 | 1006.3 |
| 20260503194506 | 78 | 30 | 1.0 | 8.0 | 0.00 | 0.00 | 0.00 | 13 | 1006.7 |
| 20260503193004 | 81 | 132 | 3.0 | 10.0 | 0.00 | 0.00 | 0.00 | 12 | 1007.0 |
| 20260503191502 | 81 | 172 | 2.0 | 10.0 | 0.00 | 0.00 | 0.00 | 12 | 1007.4 |
| 20260503190103 | 79 | 202 | 5.0 | 9.0 | 0.00 | 0.00 | 0.00 | 13 | 1007.7 |
| 20260503184556 | 78 | 225 | 1.0 | 4.0 | 0.00 | 0.00 | 0.00 | 13 | 1008.1 |
| 20260503183101 | 78 | 220 | 0.0 | 8.0 | 0.00 | 0.00 | 0.00 | 14 | 1008.5 |
| 20260503181547 | 76 | 76 | 4.0 | 7.0 | 0.00 | 0.00 | 0.00 | 15 | 1008.8 |
| 20260503180056 | 76 | 113 | 4.0 | 7.0 | 0.00 | 0.00 | 0.00 | 14 | 1009.1 |
| 20260503174543 | 76 | 223 | 1.0 | 8.0 | 0.00 | 0.00 | 0.00 | 14 | 1009.5 |
| 20260503173115 | 76 | 173 | 4.0 | 9.0 | 0.00 | 0.00 | 0.00 | 15 | 1009.7 |
| 20260503171536 | 73 | 78 | 2.0 | 10.0 | 0.00 | 0.00 | 0.00 | 16 | 1010.0 |
| 20260503130104 | 45 | 148 | 0.0 | 5.0 | 0.00 | 0.00 | 0.00 | 40 | 1010.8 |
| 20260503081528 | 50 | 149 | 2.0 | 3.0 | 0.00 | 0.00 | 0.00 | 40 | 1010.8 |
| 20260503071515 | 52 | 149 | 3.0 | 5.0 | 0.00 | 0.00 | 0.00 | 28 | 1011.1 |